• Processing (Info)

  • MPEC 2015-F97 : 2015 FO36

    The following Minor Planet Electronic Circular may be linked-to from your own Web pages, but must not otherwise be redistributed electronically.

    A form allowing access to any MPEC is at the bottom of this page.


    Read MPEC 2015-F96 Read MPEC 2015-F98


    M.P.E.C. 2015-F97                                Issued 2015 Mar. 25, 01:10 UT
    
         The Minor Planet Electronic Circulars contain information on unusual
             minor planets and routine data on comets.  They are published
       on behalf of Commission 20 of the International Astronomical Union by the
              Minor Planet Center, Smithsonian Astrophysical Observatory,
                              Cambridge, MA 02138, U.S.A.
    
                 Prepared using the Tamkin Foundation Computer Network
    
                                  MPC@CFA.HARVARD.EDU
                URL https://www.minorplanetcenter.net/    ISSN 1523-6714
    
                                       2015 FO36
    
    Observations:
         K15F36O* C2015 03 23.24231 10 31 44.70 +07 46 09.9          20.7 VqEF097G96
         K15F36O  C2015 03 23.24888 10 31 45.98 +07 46 25.9          20.7 VqEF097G96
         K15F36O  C2015 03 23.25545 10 31 47.25 +07 46 41.7          20.9 VqEF097G96
         K15F36O  C2015 03 23.26201 10 31 48.52 +07 46 57.5          20.9 VqEF097G96
         K15F36O  C2015 03 23.36024 10 32 07.82 +07 50 54.3          21.0 VqEF097G96
         K15F36O  C2015 03 23.36397 10 32 08.60 +07 51 03.2          20.8 VqEF097G96
         K15F36O  C2015 03 23.36769 10 32 09.31 +07 51 12.3          20.5 VqEF097G96
         K15F36O  C2015 03 23.37141 10 32 10.07 +07 51 21.0          20.6 VqEF097G96
         K15F36O  C2015 03 24.17776 10 35 04.01 +08 22 49.9          21.2 VqEF097G96
         K15F36O  C2015 03 24.17826 10 35 04.20 +08 22 50.8          21.4 VqEF097G96
         K15F36O  C2015 03 24.17876 10 35 04.26 +08 22 51.6          21.1 VqEF097G96
         K15F36O  C2015 03 24.17926 10 35 04.35 +08 22 53.3          21.4 VqEF097G96
         K15F36O  C2015 03 24.17976 10 35 04.46 +08 22 54.3          20.9 VqEF097G96
         K15F36O KC2015 03 25.00280 10 37 50.12 +08 52 49.3                qEF097J95
         K15F36O KC2015 03 25.02028 10 37 53.39 +08 53 25.3          20.7 RqEF097J95
    
    Observer details:
    G96 Mt. Lemmon Survey.  Observers A. D. Grauer, R. E. Hill, D. C. Fuls.
        Measurers E. J. Christensen, D. C. Fuls, A. R. Gibbs, A. D. Grauer,
        R. E. Hill, J. A. Johnson, R. A. Kowalski, S. M. Larson, R. G. Matheny,
        F. C. Shelly.  1.5-m reflector + CCD.
    J95 Great Shefford.  Observer P. Birtwhistle.  0.40-m f/6.0 Schmidt-Cassegrain
        + CCD.
    
    Orbital elements:
    2015 FO36                                                Earth MOID = 0.0753 AU
    Epoch 2015 June 27.0 TT = JDT 2457200.5                 MPC
    M  98.00183              (2000.0)            P               Q
    n   0.60718122     Peri.  288.90048     -0.32546331     -0.94555464
    a   1.3812019      Node   180.09411     +0.91200293     -0.31384984
    e   0.3048583      Incl.    8.12581     +0.24964833     -0.08616666
    P   1.62           H   23.7           G   0.15           U   8
    Residuals in seconds of arc
    150323 G96  0.3+  0.1-    150323 G96  0.3+  0.0     150324 G96  0.1-  0.2-
    150323 G96  0.3+  0.1-    150323 G96  0.2-  0.2+    150324 G96  0.2-  0.4+
    150323 G96  0.1+  0.3-    150323 G96  0.0   0.1+    150324 G96  0.1+  0.3+
    150323 G96  0.0   0.4-    150324 G96  1.0-  0.4+    150325 J95  0.0   0.4+
    150323 G96  0.3-  0.0     150324 G96  0.4+  0.2+    150325 J95  0.0   0.5-
    
    Ephemeris:
    2015 FO36                a,e,i = 1.38, 0.30, 8                   q = 0.9601
    Date    TT    R. A. (2000) Decl.     Delta      r     Elong.  Phase     V
    2015 02 23    06 50 10.9 -34 17 34   0.08179 1.0239   112.9    62.9    20.6
    ...
    2015 03 10    09 24 21.4 -06 51 17   0.09761 1.0779   149.2    28.1    20.1
    ...
    2015 03 18    10 10 21.6 +03 27 17   0.1260  1.1109   155.4    21.9    20.5
    ...
    2015 03 24    10 34 25.5 +08 16 26   0.1534  1.1369   154.3    22.3    21.0
    2015 03 25    10 37 50.3 +08 53 19   0.1583  1.1414   153.9    22.6    21.1
    2015 03 26    10 41 06.6 +09 27 28   0.1634  1.1458   153.4    22.9    21.2
    ...
    2015 04 01    10 58 18.0 +12 03 31   0.1960  1.1729   150.0    25.2    21.7
    ...
    2015 04 09    11 16 33.7 +13 54 44   0.2445  1.2098   145.0    28.3    22.3
    ...
    2015 04 24    11 43 27.0 +14 26 55   0.3498  1.2800   135.9    33.2    23.3
    
    A. U. Tomatic                (C) Copyright 2015 MPC           M.P.E.C. 2015-F97
    

    Read MPEC 2015-F96 Read MPEC 2015-F98


    MPEC number:

    Enter an MPEC number in one of the following forms:

    • 1997-B01 (the full form)
    • J97B01 (the packed version of the full form)
    • B01 (the abbreviated form)